User: anonymous   Login
Location: Caltech
(34.1382°N, 118.1253°W)
Time: 13:52:29
(UTC-08:00)
Language:

Meteor 1-11 Rocket - Orbit

View from above orbital plane
View from above orbital plane
View from above satellite
View from above satellite

Ground track
Ground track

The orbit data is extracted from the following two-line orbital elements,

1 05918U 72022B   14330.86401519 -.00000040  00000-0 -31839-4 0  3078
2 05918 081.2350 148.7069 0059686 070.1908 038.3976 14.05735719186865
Epoch (UTC): 26 November 2014 20:44:10
Eccentricity: 0.0059686
inclination: 81.2350°
perigee height: 831 km
apogee height: 917 km
right ascension of ascending node: 148.7069°
argument of perigee: 70.1908°
revolutions per day: 14.05735719
mean anomaly at epoch: 38.3976°
orbit number at epoch: 18686

The dashed part of the orbit path shows where the satellite is in the earth's shadow,  

DLR